FIN1BA EGCC-EFHK

Flight info

Callsign FIN1BA
Flight time N/A
Altitude 37000
Route SONEX L975 DESIG L603 LAMIX UT29 LIBSO UL975 ERDOW DCT BAZNA DCT ROPAL DCT LESRA DCT MAKUR DCT RUNGA DCT RIRIP Y364 LAKUT
Aircraft A320/M-SDE3FGHIRWY/LB1

Departure

Time N/A
Airport Manchester Airport (EGCC)

Arrival

Time 2026-04-20 16:35
Airport Helsinki Vantaa Airport (EFHK)
Time Latitude Longitude Altitude Speed Heading
2026-04-20 15:59 59.57715 18.98743 37407 ft 411 kts 65°
2026-04-20 15:59 59.60139 19.08951 37410 ft 411 kts 65°
2026-04-20 16:00 59.62146 19.17440 37413 ft 410 kts 65°
2026-04-20 16:00 59.64559 19.27668 37413 ft 410 kts 65°
2026-04-20 16:01 59.66961 19.37909 37410 ft 410 kts 65°
2026-04-20 16:01 59.69355 19.48163 37409 ft 410 kts 65°
2026-04-20 16:02 59.71738 19.58429 37407 ft 410 kts 65°
2026-04-20 16:02 59.74102 19.68698 37406 ft 409 kts 65°
2026-04-20 16:03 59.76576 19.78866 37405 ft 409 kts 62°
2026-04-20 16:03 59.79333 19.88748 37402 ft 409 kts 61°
2026-04-20 16:04 59.82121 19.98573 37390 ft 407 kts 61°
2026-04-20 16:04 59.84837 20.08454 37400 ft 407 kts 62°
2026-04-20 16:05 59.87509 20.18404 37396 ft 407 kts 62°
2026-04-20 16:05 59.90148 20.28288 37394 ft 407 kts 62°
2026-04-20 16:06 59.92817 20.38243 37389 ft 407 kts 62°
2026-04-20 16:06 59.95483 20.48203 37388 ft 407 kts 62°
2026-04-20 16:07 59.98137 20.58201 37386 ft 407 kts 63°
2026-04-20 16:07 60.00784 20.68217 37390 ft 407 kts 63°
2026-04-20 16:08 60.03418 20.78233 37389 ft 407 kts 63°
2026-04-20 16:08 60.06040 20.88274 37388 ft 407 kts 63°
2026-04-20 16:09 60.08663 20.98346 37384 ft 407 kts 63°
2026-04-20 16:09 60.11279 21.08444 37382 ft 408 kts 63°
2026-04-20 16:10 60.13887 21.18546 37378 ft 408 kts 63°
2026-04-20 16:10 60.16500 21.28670 37377 ft 408 kts 63°
2026-04-20 16:11 60.19078 21.38736 37373 ft 408 kts 63°
2026-04-20 16:11 60.20920 21.49470 37371 ft 408 kts 77°
2026-04-20 16:12 60.22086 21.60636 37367 ft 408 kts 77°
2026-04-20 16:12 60.23258 21.71817 37082 ft 408 kts 77°
2026-04-20 16:13 60.23837 21.77396 36819 ft 406 kts 78°
2026-04-20 16:13 60.24409 21.82950 36561 ft 404 kts 78°
2026-04-20 16:13 60.24980 21.88493 36306 ft 402 kts 78°
2026-04-20 16:13 60.25542 21.93975 35978 ft 397 kts 78°
2026-04-20 16:14 60.26093 21.99385 35499 ft 392 kts 78°
2026-04-20 16:14 60.26636 22.04731 35031 ft 388 kts 78°
2026-04-20 16:14 60.27168 22.09956 34576 ft 383 kts 78°
2026-04-20 16:14 60.27700 22.15195 34072 ft 379 kts 78°
2026-04-20 16:15 60.28219 22.20372 33604 ft 374 kts 78°
2026-04-20 16:15 60.28725 22.25473 33160 ft 368 kts 78°
2026-04-20 16:15 60.29226 22.30503 32728 ft 363 kts 78°
2026-04-20 16:15 60.29716 22.35449 32300 ft 358 kts 78°
2026-04-20 16:16 60.30196 22.40339 31857 ft 353 kts 78°
2026-04-20 16:16 60.30667 22.45176 31455 ft 349 kts 78°
2026-04-20 16:16 60.31132 22.49940 31055 ft 344 kts 78°
2026-04-20 16:16 60.31591 22.54654 30660 ft 340 kts 78°
2026-04-20 16:17 60.32041 22.59317 30205 ft 337 kts 78°
2026-04-20 16:17 60.32488 22.63946 29749 ft 334 kts 78°
2026-04-20 16:17 60.32930 22.68516 29326 ft 330 kts 78°
2026-04-20 16:17 60.33360 22.72974 28926 ft 326 kts 78°
2026-04-20 16:18 60.33795 22.77492 28512 ft 322 kts 78°
2026-04-20 16:18 60.34211 22.81849 28114 ft 318 kts 78°
2026-04-20 16:18 60.34625 22.86205 27721 ft 314 kts 78°
2026-04-20 16:18 60.35031 22.90520 27314 ft 310 kts 78°
2026-04-20 16:19 60.35429 22.94776 26926 ft 307 kts 78°
2026-04-20 16:19 60.35824 22.98997 26531 ft 304 kts 78°
2026-04-20 16:19 60.36215 23.03169 26130 ft 301 kts 78°
2026-04-20 16:19 60.36601 23.07323 25736 ft 299 kts 78°
2026-04-20 16:20 60.36982 23.11437 25323 ft 297 kts 78°
2026-04-20 16:20 60.37361 23.15524 24907 ft 295 kts 78°
2026-04-20 16:20 60.37733 23.19542 24499 ft 293 kts 78°
2026-04-20 16:20 60.38106 23.23591 24087 ft 292 kts 78°
2026-04-20 16:21 60.38475 23.27631 23629 ft 292 kts 78°
2026-04-20 16:21 60.38839 23.31654 23202 ft 289 kts 78°
2026-04-20 16:21 60.39199 23.35641 22796 ft 287 kts 78°
2026-04-20 16:21 60.39554 23.39597 22399 ft 285 kts 78°
2026-04-20 16:22 60.39906 23.43522 22000 ft 283 kts 78°
2026-04-20 16:22 60.40252 23.47420 21612 ft 281 kts 78°
2026-04-20 16:22 60.40596 23.51296 21225 ft 279 kts 78°
2026-04-20 16:22 60.40879 23.55186 20653 ft 285 kts 88°
2026-04-20 16:23 60.40493 23.59180 19874 ft 297 kts 110°
2026-04-20 16:23 60.39505 23.62881 19102 ft 301 kts 115°
2026-04-20 16:23 60.38467 23.66571 18277 ft 303 kts 115°
2026-04-20 16:23 60.37416 23.70281 17396 ft 305 kts 115°
2026-04-20 16:24 60.36354 23.74014 16532 ft 307 kts 115°
2026-04-20 16:24 60.35285 23.77768 15683 ft 309 kts 115°
2026-04-20 16:24 60.34212 23.81539 14858 ft 310 kts 116°
2026-04-20 16:24 60.33134 23.85325 14039 ft 311 kts 116°
2026-04-20 16:25 60.32054 23.89118 13180 ft 311 kts 116°
2026-04-20 16:25 60.30985 23.92866 12424 ft 307 kts 116°
2026-04-20 16:25 60.29929 23.96564 11838 ft 300 kts 116°
2026-04-20 16:25 60.28913 24.00105 11680 ft 290 kts 116°
2026-04-20 16:26 60.27911 24.03597 11381 ft 286 kts 116°
2026-04-20 16:26 60.26919 24.07061 10944 ft 285 kts 116°
2026-04-20 16:26 60.25937 24.10484 10400 ft 280 kts 116°
2026-04-20 16:26 60.24970 24.13852 9894 ft 276 kts 116°
2026-04-20 16:27 60.24006 24.17208 9453 ft 277 kts 116°
2026-04-20 16:27 60.23042 24.20563 9025 ft 276 kts 116°
2026-04-20 16:27 60.22079 24.23902 8600 ft 276 kts 116°
2026-04-20 16:27 60.21115 24.27232 8184 ft 275 kts 117°
2026-04-20 16:28 60.20152 24.30543 7769 ft 274 kts 117°
2026-04-20 16:28 60.19194 24.33844 7364 ft 273 kts 117°
2026-04-20 16:28 60.18237 24.37134 6959 ft 272 kts 117°
2026-04-20 16:28 60.17283 24.40408 6548 ft 271 kts 117°
2026-04-20 16:29 60.16340 24.43638 6118 ft 263 kts 117°
2026-04-20 16:29 60.15436 24.46732 5698 ft 251 kts 115°
2026-04-20 16:29 60.14874 24.49906 5284 ft 235 kts 94°
2026-04-20 16:29 60.14944 24.53079 4865 ft 223 kts 73°
2026-04-20 16:30 60.15544 24.55870 4449 ft 216 kts 54°
2026-04-20 16:30 60.16511 24.58116 4025 ft 211 kts 45°
2026-04-20 16:30 60.17500 24.60264 3610 ft 208 kts 46°
2026-04-20 16:30 60.18469 24.62396 3198 ft 205 kts 46°
2026-04-20 16:31 60.19415 24.64458 3017 ft 193 kts 45°
2026-04-20 16:31 60.20291 24.66364 3045 ft 180 kts 45°
2026-04-20 16:31 60.21128 24.68180 3016 ft 175 kts 45°
2026-04-20 16:31 60.21951 24.69969 2878 ft 174 kts 46°
2026-04-20 16:32 60.22767 24.71745 2668 ft 172 kts 45°
2026-04-20 16:32 60.23579 24.73513 2448 ft 172 kts 46°
2026-04-20 16:32 60.24374 24.75246 2210 ft 167 kts 45°
2026-04-20 16:32 60.25119 24.76875 2016 ft 149 kts 45°
2026-04-20 16:33 60.25794 24.78347 1803 ft 138 kts 46°
2026-04-20 16:33 60.26434 24.79746 1616 ft 134 kts 46°
2026-04-20 16:33 60.27061 24.81114 1424 ft 132 kts 46°
2026-04-20 16:33 60.27680 24.82469 1241 ft 131 kts 46°
2026-04-20 16:34 60.28301 24.83823 1056 ft 132 kts 46°
2026-04-20 16:34 60.28924 24.85188 850 ft 132 kts 45°
2026-04-20 16:34 60.29548 24.86569 718 ft 134 kts 45°
2026-04-20 16:34 60.30180 24.87970 561 ft 135 kts 44°
2026-04-20 16:35 60.30819 24.89351 391 ft 135 kts 44°
2026-04-20 16:35 60.31447 24.90744 213 ft 131 kts 44°
2026-04-20 16:35 60.31997 24.91932 189 ft 95 kts 47°
2026-04-20 16:35 60.32313 24.92620 193 ft 36 kts 48°
2026-04-20 16:36 60.32432 24.93026 191 ft 31 kts 71°
2026-04-20 16:36 60.32473 24.93356 188 ft 21 kts 78°
2026-04-20 16:36 60.32506 24.93652 192 ft 22 kts 78°
2026-04-20 16:36 60.32554 24.93946 199 ft 17 kts 48°
2026-04-20 16:37 60.32630 24.94115 203 ft 17 kts 46°
2026-04-20 16:37 60.32718 24.94305 194 ft 19 kts 49°
2026-04-20 16:37 60.32810 24.94517 190 ft 21 kts 48°
2026-04-20 16:37 60.32886 24.94684 198 ft 10 kts 47°
2026-04-20 16:38 60.32925 24.94769 199 ft 0 kts 47°
2026-04-20 16:38 60.32933 24.94817 194 ft 8 kts 92°
2026-04-20 16:38 60.32885 24.94914 193 ft 11 kts 151°
2026-04-20 16:39 60.32794 24.94976 191 ft 16 kts 162°
2026-04-20 16:39 60.32674 24.95056 196 ft 21 kts 162°
2026-04-20 16:39 60.32527 24.95150 188 ft 22 kts 162°
2026-04-20 16:39 60.32387 24.95240 202 ft 20 kts 162°
2026-04-20 16:40 60.32277 24.95382 195 ft 18 kts 138°
2026-04-20 16:40 60.32192 24.95538 196 ft 12 kts 137°
2026-04-20 16:40 60.32133 24.95650 195 ft 11 kts 137°
2026-04-20 16:40 60.32077 24.95757 187 ft 10 kts 136°
2026-04-20 16:41 60.32031 24.95839 188 ft 8 kts 138°
2026-04-20 16:41 60.31982 24.95927 188 ft 12 kts 138°
2026-04-20 16:41 60.31917 24.95933 188 ft 10 kts 220°
2026-04-20 16:41 60.31858 24.95803 199 ft 15 kts 227°
2026-04-20 16:42 60.31780 24.95631 191 ft 16 kts 227°
2026-04-20 16:42 60.31706 24.95471 200 ft 15 kts 229°
2026-04-20 16:42 60.31642 24.95325 198 ft 13 kts 227°
2026-04-20 16:42 60.31583 24.95197 192 ft 12 kts 227°
2026-04-20 16:43 60.31519 24.95141 199 ft 10 kts 158°
2026-04-20 16:43 60.31469 24.95228 194 ft 9 kts 138°
2026-04-20 16:43 60.31445 24.95326 195 ft 7 kts 77°
2026-04-20 16:43 60.31468 24.95402 190 ft 5 kts 82°
2026-04-20 16:44 60.31447 24.95449 194 ft 5 kts 144°
2026-04-20 16:44 60.31425 24.95490 201 ft 4 kts 136°
2026-04-20 16:44 60.31411 24.95516 188 ft 0 kts 137°